[[{"header":{"parameterUnit":"m.s-1","parameterCategory":1,"la1":30.2991,"la2":30.254,"lo1":-89.0895,"lo2":-89.0444,"dy":0.0017,"dx":0.0017,"nx":28,"ny":28,"refTime":"2025-03-14T09:00:00:Z","depth":0,"parameterNumber":2,"parameterNumberName":"U-component_of_WINDS"},"data":[0,0,0,0,0,0,0,0,0,0,0,0,0,0,0,0,0,0,0,0,0,0,0,0,0,0,0,0,0,0,0,0,0,0,0,0,0,0,0,0,0,0,0,0,0,0,0,0,0,0,0,0,0,0,0,0,0,0,-4.0436,-4.0437,0,-4.0549,-4.0551,-4.0552,-4.0569,-4.0568,-4.0567,-4.0566,-4.0682,-4.0686,-4.069,0,0,0,0,0,0,0,0,0,0,0,0,0,-4.0235,-4.0238,-4.0436,-4.0437,-4.0439,-4.0549,-4.0551,-4.0552,-4.0569,-4.0568,-4.0566,-4.0565,-4.068,-4.0685,-4.069,0,0,0,0,0,0,0,0,0,0,0,0,0,-4.0332,-4.0239,-4.0436,-4.046,-4.0464,-4.0549,-4.0551,-4.0553,-4.0569,-4.0568,-4.0566,-4.0565,-4.0679,-4.0685,-4.0691,-4.0759,0,0,-4.0709,-4.0712,0,0,0,0,0,0,0,0,-4.0327,-4.034,-4.0455,-4.0459,-4.0463,-4.0543,-4.0522,-4.0622,-4.057,-4.0529,-4.0566,-4.0564,-4.0637,-4.0646,-4.0671,-4.0764,-4.0769,-4.071,-4.0713,-4.0716,-4.0718,0,0,0,0,0,0,0,-4.032,-4.0335,-4.0481,-4.0457,-4.0462,-4.0466,-4.0478,-4.0541,-4.059,-4.0533,-4.0534,-4.0547,-4.0639,-4.0665,-4.0674,-4.0771,-4.0709,-4.0715,-4.0719,-4.0721,-4.0927,-4.0928,0,0,0,0,0,0,-4.0309,-4.0329,-4.0477,-4.0484,-4.039,-4.0471,-4.0485,-4.0519,-4.059,-4.0599,-4.0548,-4.0548,-4.0655,-4.0667,-4.0678,-4.0762,-4.0716,-4.0722,-4.0725,-4.0925,-4.0927,-4.0929,0,0,0,0,0,0,-4.0304,-4.0322,-4.0473,-4.0407,-4.0427,-4.0476,-4.0515,-4.0522,-4.0548,-4.0602,-4.061,-4.0566,-4.0655,-4.0669,-4.0739,-4.0766,-4.0724,-4.073,-4.0923,-4.0925,-4.0928,-4.0931,0,0,0,0,0,0,-4.0299,-4.032,-4.0346,-4.0408,-4.043,-4.0531,-4.0516,-4.0525,-4.0559,-4.0559,-4.0621,-4.063,-4.0655,-4.073,-4.0745,-4.0774,-4.0735,-4.092,-4.0924,-4.0927,-4.0928,-4.0933,-4.0937,0,0,0,0,0,-4.0291,-4.0343,-4.0348,-4.0365,-4.0464,-4.0533,-4.0546,-4.0573,-4.0561,-4.0588,-4.0622,-4.0628,-4.0761,-4.0736,-4.0754,-4.0785,-4.0919,-4.0923,-4.0927,-4.0926,-4.0932,-4.0937,0,0,0,0,0,0,-4.0283,-4.0351,-4.0357,-4.043,-4.0476,-4.0535,-4.057,-4.0579,-4.0629,-4.0627,-4.0659,-4.0673,-4.074,-4.077,-4.0741,-4.0855,-4.0839,-4.0847,-4.0833,-4.0839,-4.0843,-4.0833,-4.074,0,0,0,0,0,-4.0289,-4.034,-4.0397,-4.0455,-4.0478,-4.052,-4.0551,-4.0569,-4.0617,-4.0636,-4.0676,-4.0723,-4.0775,-4.0809,-4.086,-4.0934,-4.0947,-4.0964,-4.0968,-4.0972,-4.0977,-4.1018,-4.1026,-4.0942,-4.0942,-4.0942,0,0,-4.0303,-4.0347,-4.0376,-4.0455,-4.0492,-4.0543,-4.0536,-4.059,-4.0629,-4.0645,-4.0712,-4.0743,-4.0798,-4.0869,-4.0902,-4.0896,-4.1004,-4.0977,-4.0979,-4.0983,-4.1023,-4.1031,-4.1038,-4.0945,-4.0945,-4.0944,0,0,-4.0354,-4.0393,-4.0446,-4.0484,-4.054,-4.0568,-4.0581,-4.064,-4.0661,-4.073,-4.0743,-4.0789,-4.0879,-4.0918,-4.0949,-4.1016,-4.1023,-4.1032,-4.1055,-4.1094,-4.11,-4.1106,-4.1129,-4.1137,-4.1038,-4.1038,-4.1038,0,-4.0364,-4.0442,-4.0472,-4.0526,-4.0559,-4.0577,-4.0631,-4.0666,-4.0737,-4.076,-4.0752,-4.0865,-4.0904,-4.0984,-4.1,-4.1026,-4.1041,-4.1024,-4.1097,-4.1103,-4.1109,-4.1131,-4.114,-4.1039,-4.1039,-4.1039,-4.1039,0,-4.0451,-4.0504,-4.054,-4.0608,-4.0646,-4.07,-4.0738,-4.0773,-4.0788,-4.0817,-4.0887,-4.0934,-4.0994,-4.1016,-4.1031,-4.1098,-4.1092,-4.1091,-4.1074,-4.1117,-4.1139,-4.1147,-4.104,-4.104,-4.1039,-4.1039,0,0,-4.0497,-4.0582,-4.0594,-4.0625,-4.069,-4.0732,-4.0787,-4.0847,-4.0876,-4.0925,-4.0971,-4.1048,-4.1046,-4.1082,-4.1102,-4.1137,-4.1186,-4.1131,-4.1132,-4.1138,-4.1262,-4.1261,-4.1271,-4.1192,-4.1193,-4.1195,-4.1257,0,-4.0554,-4.0652,-4.0681,-4.0763,-4.0812,-4.0831,-4.0879,-4.0924,-4.0953,-4.0999,-4.1032,-4.1085,-4.108,-4.1102,-4.1137,-4.1172,-4.1211,-4.1168,-4.1234,-4.1236,-4.1217,-4.1282,-4.1281,-4.1338,-4.1266,-4.1267,-4.1268,0,-4.0634,-4.0684,-4.077,-4.0829,-4.0851,-4.0893,-4.095,-4.0995,-4.1047,-4.1065,-4.1106,-4.1123,-4.1181,-4.1164,-4.1244,-4.1215,-4.1244,-4.1266,-4.1269,-4.1274,-4.1253,-4.1287,-4.1356,-4.1364,-4.1282,-4.1281,-4.128,0,-4.0657,-4.0746,-4.0809,-4.0836,-4.0906,-4.0935,-4.0966,-4.1016,-4.105,-4.1101,-4.1124,-4.1181,-4.1211,-4.1255,-4.1287,-4.1272,-4.1365,-4.135,-4.1381,-4.138,-4.1398,-4.1396,-4.147,-4.142,-4.142,-4.142,-4.142,0,-4.0716,-4.0768,-4.0821,-4.0859,-4.0918,-4.0952,-4.1009,-4.1041,-4.1086,-4.1131,-4.1152,-4.1194,-4.1235,-4.1283,-4.1309,-4.1371,-4.1386,-4.1402,-4.1408,-4.1399,-4.1396,-4.1417,-4.1413,-4.1422,-4.1422,-4.1421,-4.1421,0,-4.0751,-4.0788,-4.0858,-4.092,-4.0936,-4.0977,-4.1029,-4.1068,-4.1098,-4.1155,-4.1171,-4.1219,-4.1276,-4.1314,-4.1387,-4.1405,-4.1472,-4.1478,-4.1454,-4.1456,-4.1485,-4.1481,-4.1573,-4.1586,-4.1529,-4.1529,-4.153,0,-4.0785,-4.0826,-4.0891,-4.0923,-4.0954,-4.1005,-4.104,-4.1076,-4.1111,-4.1174,-4.1205,-4.1264,-4.1312,-4.1403,-4.1445,-4.1501,-4.1508,-4.1536,-4.1516,-4.1506,-4.1506,-4.1502,-4.1506,-4.1538,-4.1539,-4.1539,-4.154,0,-4.0842,-4.0859,-4.0908,-4.0965,-4.1006,-4.1052,-4.1098,-4.1123,-4.1167,-4.1207,-4.1265,-4.1303,-4.1378,-4.1436,-4.1497,-4.1529,-4.1541,-4.1546,-4.1556,-4.1546,-4.153,-4.1537,-4.1461,-4.1543,-4.1543,-4.1543,-4.1542,-4.1542,-4.0877,-4.0913,-4.0965,-4.1019,-4.1058,-4.1101,-4.114,-4.1176,-4.1225,-4.1289,-4.1308,-4.1369,-4.1421,-4.1503,-4.1537,-4.1585,-4.1582,-4.1596,-4.16,-4.1602,-4.1601,-4.1524,-4.1597,-4.1597,-4.1597,-4.1596,-4.1596,0,-4.0933,-4.0967,-4.1017,-4.1081,-4.1125,-4.1134,-4.1186,-4.1221,-4.1274,-4.1322,-4.1369,-4.1437,-4.1494,-4.1541,-4.1599,-4.1629,-4.1636,-4.1643,-4.164,-4.1647,-4.1602,-4.1587,-4.1636,-4.1636,-4.1636,-4.1636,-4.1636,-4.1636,-4.0967,-4.1029,-4.1052,-4.1133,-4.1168,-4.1228,-4.1256,-4.1296,-4.1334,-4.1408,-4.1456,-4.1486,-4.1533,-4.1595,-4.1648,-4.166,-4.168,-4.1685,-4.1699,-4.1655,-4.165,-4.1646,-4.1632,-4.169,-4.169,-4.174,-4.174,-4.174]},{"header":{"parameterUnit":"m.s-1","parameterCategory":1,"la1":30.2991,"la2":30.254,"lo1":-89.0895,"lo2":-89.0444,"dy":0.0017,"dx":0.0017,"nx":28,"ny":28,"refTime":"2025-03-14T09:00:00:Z","depth":0,"parameterNumber":3,"parameterNumberName":"V-component_of_WINDS"},"data":[0,0,0,0,0,0,0,0,0,0,0,0,0,0,0,0,0,0,0,0,0,0,0,0,0,0,0,0,0,0,0,0,0,0,0,0,0,0,0,0,0,0,0,0,0,0,0,0,0,0,0,0,0,0,0,0,0,0,5.0465,5.0465,0,5.055,5.0551,5.0552,5.0565,5.0564,5.0564,5.0563,5.0648,5.0651,5.0654,0,0,0,0,0,0,0,0,0,0,0,0,0,5.0311,5.0314,5.0464,5.0466,5.0467,5.055,5.0551,5.0553,5.0565,5.0564,5.0563,5.0562,5.0647,5.0651,5.0654,0,0,0,0,0,0,0,0,0,0,0,0,0,5.0385,5.0315,5.0464,5.0483,5.0486,5.055,5.0552,5.0553,5.0565,5.0564,5.0563,5.0562,5.0646,5.065,5.0655,5.0706,0,0,5.0669,5.0671,0,0,0,0,0,0,0,0,5.0381,5.0391,5.0479,5.0482,5.0485,5.0546,5.0529,5.0604,5.0566,5.0535,5.0563,5.0561,5.0615,5.0622,5.0641,5.071,5.0713,5.0669,5.0672,5.0674,5.0675,0,0,0,0,0,0,0,5.0376,5.0387,5.0498,5.0481,5.0484,5.0487,5.0496,5.0543,5.058,5.0538,5.0539,5.0549,5.0616,5.0636,5.0643,5.0715,5.0669,5.0673,5.0676,5.0677,5.0833,5.0835,0,0,0,0,0,0,5.0367,5.0383,5.0496,5.0501,5.0429,5.0491,5.0501,5.0527,5.058,5.0587,5.055,5.0549,5.0629,5.0637,5.0646,5.0711,5.0674,5.0678,5.068,5.0832,5.0834,5.0835,0,0,0,0,0,0,5.0364,5.0377,5.0492,5.0442,5.0457,5.0495,5.0524,5.053,5.055,5.0589,5.0596,5.0563,5.0628,5.0639,5.0692,5.0714,5.068,5.0684,5.083,5.0833,5.0835,5.0841,0,0,0,0,0,0,5.036,5.0376,5.0396,5.0443,5.046,5.0537,5.0525,5.0532,5.0558,5.0558,5.0604,5.061,5.0628,5.0685,5.0696,5.072,5.0687,5.0828,5.0831,5.0834,5.0839,5.0843,5.0847,0,0,0,0,0,5.0354,5.0393,5.0397,5.041,5.0485,5.0538,5.0548,5.0569,5.0559,5.058,5.0606,5.0609,5.071,5.069,5.0703,5.0728,5.0827,5.083,5.0834,5.0837,5.0843,5.0847,0,0,0,0,0,0,5.0346,5.0399,5.0404,5.0459,5.0494,5.054,5.0566,5.0573,5.0611,5.0609,5.0633,5.0643,5.0695,5.0717,5.0694,5.0782,5.0768,5.0774,5.0766,5.0771,5.0775,5.0769,5.0691,0,0,0,0,0,5.0351,5.039,5.0434,5.0478,5.0496,5.0528,5.0552,5.0566,5.0602,5.0617,5.0646,5.0682,5.0722,5.0747,5.0786,5.0842,5.0854,5.0866,5.087,5.0873,5.0878,5.0912,5.0919,5.0846,5.0846,5.0846,0,0,5.0361,5.0395,5.0418,5.0478,5.0507,5.0547,5.0541,5.0582,5.0613,5.0623,5.0675,5.0698,5.0739,5.0795,5.082,5.0814,5.0901,5.0877,5.0879,5.0883,5.0916,5.0923,5.0929,5.0848,5.0848,5.0848,0,0,5.04,5.0429,5.0471,5.0501,5.0545,5.0567,5.0577,5.0622,5.0639,5.0692,5.0701,5.0737,5.0805,5.0835,5.0859,5.0912,5.0917,5.0924,5.0945,5.0978,5.0983,5.0989,5.101,5.1017,5.0929,5.0929,5.0929,0,5.0407,5.0469,5.0491,5.0534,5.0561,5.0574,5.0617,5.0644,5.0698,5.0717,5.0709,5.0797,5.0825,5.0889,5.0903,5.0921,5.0934,5.0919,5.0981,5.0986,5.0992,5.1012,5.102,5.093,5.093,5.0929,5.0929,0,5.0476,5.0519,5.0547,5.0601,5.0631,5.0674,5.0703,5.0731,5.0742,5.0765,5.082,5.0855,5.0902,5.0918,5.0928,5.0984,5.098,5.0976,5.0962,5.0999,5.1019,5.1027,5.0931,5.093,5.093,5.093,0,0,5.0512,5.058,5.0591,5.0617,5.0668,5.0701,5.0745,5.0793,5.0817,5.0854,5.0893,5.0951,5.0949,5.0977,5.0991,5.1019,5.1063,5.1013,5.1014,5.1023,5.113,5.1133,5.1142,5.1066,5.1068,5.1069,5.1127,0,5.0559,5.0639,5.0662,5.0729,5.077,5.0784,5.0822,5.0858,5.0881,5.0919,5.0943,5.0985,5.0978,5.0996,5.1024,5.1052,5.1085,5.1047,5.1103,5.1105,5.1095,5.1152,5.1156,5.1208,5.1135,5.1136,5.1137,0,5.0625,5.0666,5.0738,5.0786,5.0804,5.0839,5.0886,5.0922,5.0963,5.0978,5.101,5.1022,5.1069,5.1052,5.1118,5.1093,5.1117,5.1134,5.1136,5.1144,5.1124,5.1163,5.1225,5.1234,5.1149,5.1148,5.1147,0,5.0647,5.072,5.0774,5.0795,5.0852,5.0876,5.0901,5.0941,5.097,5.1011,5.103,5.1075,5.11,5.1135,5.1159,5.1145,5.1225,5.1209,5.1239,5.1239,5.1256,5.1255,5.1326,5.1269,5.1268,5.1268,5.1268,0,5.0699,5.0743,5.0785,5.0818,5.0868,5.0894,5.0943,5.0968,5.1004,5.1043,5.1056,5.1092,5.1122,5.1162,5.1181,5.1235,5.1245,5.1259,5.1264,5.1259,5.1258,5.1276,5.1274,5.127,5.127,5.127,5.1269,0,5.0733,5.0762,5.0822,5.0872,5.0886,5.0921,5.0964,5.0997,5.102,5.1069,5.1082,5.1119,5.1167,5.1195,5.1255,5.1268,5.1328,5.133,5.1315,5.1318,5.1347,5.1345,5.1434,5.1448,5.1379,5.138,5.138,0,5.0765,5.0799,5.0854,5.0881,5.0907,5.0951,5.098,5.1007,5.1038,5.1089,5.1116,5.1165,5.1206,5.1283,5.1315,5.1362,5.1366,5.1394,5.1373,5.1368,5.137,5.1368,5.1373,5.1398,5.1399,5.1399,5.14,0,5.0819,5.0833,5.0875,5.0924,5.096,5.0999,5.1038,5.1059,5.1093,5.1126,5.1177,5.1208,5.1271,5.1321,5.1371,5.1396,5.1404,5.1406,5.1416,5.1412,5.1403,5.1411,5.1327,5.1404,5.1404,5.1403,5.1403,5.1403,5.0855,5.0887,5.0932,5.098,5.1012,5.1049,5.1083,5.1112,5.1155,5.1209,5.1222,5.1276,5.1318,5.1386,5.1413,5.1456,5.1451,5.1464,5.1468,5.1472,5.1474,5.1395,5.1464,5.1464,5.1464,5.1464,5.1464,0,5.0912,5.0942,5.0986,5.1041,5.1079,5.1084,5.1128,5.1159,5.1207,5.1246,5.1287,5.1346,5.1394,5.1431,5.1481,5.1508,5.1514,5.1521,5.152,5.1526,5.1474,5.1462,5.1516,5.1516,5.1516,5.1516,5.1516,5.1516,5.0947,5.1003,5.1023,5.1096,5.1125,5.1179,5.1204,5.1238,5.127,5.1336,5.1377,5.1401,5.144,5.1493,5.1538,5.1548,5.1567,5.1574,5.1584,5.1535,5.153,5.1524,5.1513,5.1577,5.1577,5.1633,5.1634,5.1634]}]]